Showing default

O3B FM20, 44112

Orbit data source: Space-Track

O3B FM20, 44112 is a payload satellite owned by O3B SES (JE) that was launched on Thu, 04 Apr 2019 UTC via a SOYUZ-ST-B launch vehicle from the French Guiana (FRGUI). Payloads include a variety of satellites, spacecraft, and rockets equipped with specific instruments for various scientific and technological missions. These include communications satellites like Starlink; space stations such as the ISS; scientific satellites like the Hubble; Earth observation satellites from companies like Planet Labs, Umbra, and HawkEye 360; GPS; miniature CubeSats for education and research; and military/defense satellites.

Loading next visibility...
O3B FM20 details
Identifier
44112, 2019-020A
Orbit
Active
Last TLE update14 hours ago
Origin
Flag of JEO3B SES (JE / O3B)
ManufacturerThales Alenia
MissionOperational Commercial Communications
Bus & MotorPRISMA?, LS-400 AOCS?
Mass700 kg wet, ~500 kg dry
Launch date (UTC)
2019-04-04 (6 years ago)
Launch vehicle
SOYUZ-ST-B
Launch site
French Guiana (FRGUI)
Object type
Payload
Rocket body
Debris
Shape & HBRTrap Box + 2 Pan, 12 m
Radar Cross Section21.980 m², Large (>1 m²)

Expand to show TLE details & history

TLE from 14 hours ago
0 O3B FM20
1 44112U 19020A   24361.10638319 -.00000013  00000-0  00000-0 0  9996
2 44112   0.0520 358.8806 0003027 286.7924  74.2952  5.00115180104655
Epoch: 2024-12-26T02:33Z
Definitive object data (Epoch: 2024-12-26T02:33:11.507Z)
Latitude0.00137°
Longitude-133.38845°
Altitude8,063.196 km
Speed5.255 km/s
True Right ascension00h 00m 00s
True Declination0° 00' 05"
Sunlit
Object was in daylight at TLE epoch
Visualization TLE readout
Latitude-0.05019°
Longitude162.8992°
Altitude8,060.08 km
Speed5.256 km/s
Apparent Right ascension21h 04m 02s
Apparent Declination-17° 20' 08"
Sunlit
Object is in daylight
Visualization observer readout
Local Sidereal Time15:27:54
Azimuth107.109° ESE
Elevation-6.607°
Doppler factor1
Orbital elements
Apogee altitude8,073.328 km
Perigee altitude8,064.582 km
Semi-major axis14,447.092 km
Eccentricity0.0003027
Inclination0.052°
RAAN358.8806°
Arg. of periapsis286.7924°
True anomaly74.3286°
Mean anomaly74.2952°
Eccentric anomaly74.3119°
Mean motion1.24989 °/min
BSTARUnknown
Orbital period288.02 mins
Loading maneuver chart data...
Loading historical data...
Loading historical data...
Loading historical data...
Loading historical data...
Loading historical data...
Loading historical data...
Loading historical data...
Other satellites on launch #20 in the year 2019 (2019-04-04 UTC)

O3B FM20 Visibility forecast

Observer location: undefined°, undefined

Span
Click to sort rows by Start time (UTC) header in descending order
Start Az.
Max El. time (UTC)
Max El. Az.
Max El.
End time (UTC)
End Az.
79 mins2024-12-26 20:21:47.966Z232.313° WSW2024-12-26 21:01:47.966Z179.509° S24.32°2024-12-26 21:40:47.966Z128.022° SE
78 mins2024-12-27 02:22:47.966Z231.308° WSW2024-12-27 03:01:47.966Z179.477° S24.405°2024-12-27 03:40:47.966Z127.997° SE
78 mins2024-12-27 08:22:47.966Z231.372° WSW2024-12-27 09:01:47.966Z179.548° S24.418°2024-12-27 09:40:47.966Z128.083° SE
78 mins2024-12-27 14:22:47.966Z231.385° WSW2024-12-27 15:01:47.966Z179.581° S24.333°2024-12-27 15:40:47.966Z128.108° SE
|